shoulder
new_line
new_line
first
second
third
Al di la della Luna; Beyond the Moon; Astrophotography; Astrofotografia; Danilo Pivato
 
 
         
         
2005

Orbital Elements

Epoch 2005 Jan. 30.0 TT = JDT 2453400.5
T 2005 Jan. 24.91122 TT                                 MPC
q   1.2050454            (2000.0)            P               Q
z  +0.0004430      Peri.   19.50425     -0.32003074     -0.71420604
                   Node    93.62406     +0.76513268     -0.58231216
e   0.9994661      Incl.   38.58935     +0.55870593     +0.38835845                        
 
         
         
2005.07.15
 
2005.07.01
2005.07.05
         
         
       
         
         
         
         
         
         

 

       
 
Since: 01/01/2004
 
           
Since: 01/11/2010